THY4VS UGTB-LTFM

Flight info

Callsign THY4VS
Flight time 2h 2m
Altitude 36000
Route ZAGOT DCT BARUS DCT ROLIN UN644 SIN UW90 DEVMU UL852 EVPIM UT304 LUUPU UT310 NUGBA
Aircraft A21N/M-SDE3FGHIRWY/LB1

Departure

Time 2026-04-25 16:05
Airport Tbilisi International Airport (UGTB)

Arrival

Time 2026-04-25 18:08
Airport İstanbul Airport (LTFM)
Time Latitude Longitude Altitude Speed Heading
2026-04-25 15:50 41.66892 44.96330 1578 ft 0 kts 43°
2026-04-25 15:57 41.66887 44.96323 1577 ft 2 kts 43°
2026-04-25 15:58 41.66876 44.96310 1576 ft 2 kts 43°
2026-04-25 15:58 41.66865 44.96296 1575 ft 2 kts 43°
2026-04-25 15:58 41.66855 44.96283 1573 ft 2 kts 43°
2026-04-25 15:58 41.66844 44.96268 1572 ft 2 kts 73°
2026-04-25 15:59 41.66844 44.96247 1571 ft 2 kts 110°
2026-04-25 15:59 41.66848 44.96236 1571 ft 0 kts 132°
2026-04-25 15:59 41.66854 44.96229 1571 ft 0 kts 134°
2026-04-25 16:01 41.66846 44.96239 1571 ft 4 kts 134°
2026-04-25 16:01 41.66810 44.96290 1571 ft 10 kts 134°
2026-04-25 16:02 41.66749 44.96377 1570 ft 14 kts 133°
2026-04-25 16:02 41.66659 44.96419 1565 ft 16 kts 192°
2026-04-25 16:02 41.66526 44.96376 1556 ft 21 kts 194°
2026-04-25 16:02 41.66369 44.96327 1547 ft 24 kts 195°
2026-04-25 16:03 41.66194 44.96306 1536 ft 26 kts 162°
2026-04-25 16:03 41.66060 44.96447 1529 ft 25 kts 137°
2026-04-25 16:03 41.65949 44.96583 1519 ft 15 kts 141°
2026-04-25 16:03 41.65867 44.96581 1512 ft 14 kts 229°
2026-04-25 16:04 41.65856 44.96464 1514 ft 11 kts 300°
2026-04-25 16:04 41.65884 44.96416 1517 ft 0 kts 317°
2026-04-25 16:04 41.65884 44.96415 1517 ft 4 kts 317°
2026-04-25 16:04 41.66094 44.96153 1529 ft 77 kts 316°
2026-04-25 16:05 41.66649 44.95446 1544 ft 139 kts 316°
2026-04-25 16:05 41.67396 44.94484 1953 ft 153 kts 316°
2026-04-25 16:05 41.69012 44.92512 3203 ft 163 kts 317°
2026-04-25 16:06 41.69880 44.91450 3763 ft 174 kts 316°
2026-04-25 16:06 41.70792 44.90326 4272 ft 188 kts 315°
2026-04-25 16:06 41.71792 44.89084 4782 ft 204 kts 315°
2026-04-25 16:06 41.72877 44.87732 5267 ft 224 kts 314°
2026-04-25 16:07 41.74061 44.86253 5637 ft 240 kts 314°
2026-04-25 16:07 41.74880 44.85230 5854 ft 250 kts 314°
2026-04-25 16:07 41.76604 44.83083 6646 ft 257 kts 313°
2026-04-25 16:07 41.77193 44.82255 6958 ft 256 kts 305°
2026-04-25 16:08 41.77856 44.80083 7598 ft 253 kts 276°
2026-04-25 16:08 41.77886 44.77762 8280 ft 252 kts 270°
2026-04-25 16:08 41.77877 44.75406 8865 ft 256 kts 270°
2026-04-25 16:08 41.77883 44.73029 9482 ft 258 kts 270°
2026-04-25 16:09 41.77898 44.70641 10098 ft 259 kts 270°
2026-04-25 16:09 41.77918 44.68177 10512 ft 268 kts 270°
2026-04-25 16:09 41.77943 44.65654 10818 ft 280 kts 271°
2026-04-25 16:09 41.77971 44.63033 11330 ft 284 kts 271°
2026-04-25 16:10 41.78003 44.60387 11898 ft 286 kts 271°
2026-04-25 16:10 41.78033 44.57716 12443 ft 289 kts 271°
2026-04-25 16:10 41.78066 44.55008 12981 ft 291 kts 271°
2026-04-25 16:10 41.78098 44.52309 13516 ft 292 kts 272°
2026-04-25 16:11 41.78130 44.49605 14020 ft 295 kts 272°
2026-04-25 16:11 41.78163 44.46833 14526 ft 297 kts 272°
2026-04-25 16:11 41.78194 44.44096 15010 ft 299 kts 272°
2026-04-25 16:11 41.78227 44.41272 15414 ft 304 kts 272°
2026-04-25 16:12 41.78258 44.38458 15821 ft 308 kts 272°
2026-04-25 16:12 41.78290 44.35575 16285 ft 310 kts 272°
2026-04-25 16:12 41.78319 44.32707 16722 ft 313 kts 271°
2026-04-25 16:12 41.78339 44.30743 17022 ft 314 kts 271°
2026-04-25 16:13 41.78378 44.26845 17615 ft 317 kts 271°
2026-04-25 16:13 41.78406 44.23889 18055 ft 319 kts 271°
2026-04-25 16:13 41.78434 44.20916 18482 ft 321 kts 271°
2026-04-25 16:13 41.78462 44.17909 18896 ft 323 kts 271°
2026-04-25 16:14 41.78513 44.14921 19318 ft 325 kts 273°
2026-04-25 16:14 41.78690 44.11904 19716 ft 327 kts 276°
2026-04-25 16:14 41.78973 44.08877 20089 ft 329 kts 277°
2026-04-25 16:14 41.79267 44.05830 20477 ft 331 kts 277°
2026-04-25 16:15 41.79563 44.02757 20863 ft 333 kts 277°
2026-04-25 16:15 41.79859 43.99695 21232 ft 335 kts 277°
2026-04-25 16:15 41.80154 43.96629 21592 ft 337 kts 277°
2026-04-25 16:15 41.80454 43.93512 21946 ft 339 kts 276°
2026-04-25 16:16 41.80755 43.90362 22309 ft 340 kts 276°
2026-04-25 16:16 41.81052 43.87239 22644 ft 342 kts 276°
2026-04-25 16:16 41.81353 43.84076 22963 ft 344 kts 276°
2026-04-25 16:16 41.81654 43.80896 23298 ft 346 kts 276°
2026-04-25 16:17 41.81958 43.77685 23635 ft 347 kts 276°
2026-04-25 16:17 41.82262 43.74467 23942 ft 349 kts 276°
2026-04-25 16:17 41.82563 43.71255 24236 ft 352 kts 276°
2026-04-25 16:17 41.82866 43.68012 24532 ft 354 kts 276°
2026-04-25 16:18 41.83172 43.64743 24836 ft 355 kts 276°
2026-04-25 16:18 41.83276 43.63625 24943 ft 356 kts 276°
2026-04-25 16:18 41.83787 43.58113 25424 ft 359 kts 276°
2026-04-25 16:18 41.84094 43.54794 25721 ft 360 kts 276°
2026-04-25 16:19 41.84401 43.51477 26002 ft 362 kts 276°
2026-04-25 16:19 41.84709 43.48124 26289 ft 364 kts 276°
2026-04-25 16:19 41.85018 43.44750 26561 ft 365 kts 276°
2026-04-25 16:20 41.85633 43.38008 27100 ft 368 kts 276°
2026-04-25 16:20 41.85945 43.34565 27365 ft 369 kts 275°
2026-04-25 16:20 41.86563 43.27716 27861 ft 373 kts 275°
2026-04-25 16:21 41.86871 43.24293 28121 ft 374 kts 275°
2026-04-25 16:21 41.87184 43.20787 28381 ft 376 kts 275°
2026-04-25 16:21 41.87495 43.17305 28621 ft 378 kts 275°
2026-04-25 16:21 41.87803 43.13833 28855 ft 379 kts 275°
2026-04-25 16:22 41.88117 43.10277 29128 ft 380 kts 275°
2026-04-25 16:22 41.88423 43.06803 29392 ft 381 kts 275°
2026-04-25 16:22 41.88737 43.03225 29644 ft 383 kts 275°
2026-04-25 16:22 41.89048 42.99686 29896 ft 384 kts 275°
2026-04-25 16:23 41.89356 42.96145 30116 ft 385 kts 275°
2026-04-25 16:23 41.89667 42.92565 30317 ft 387 kts 275°
2026-04-25 16:23 41.89973 42.88976 30527 ft 388 kts 274°
2026-04-25 16:23 41.90172 42.85382 30731 ft 389 kts 271°
2026-04-25 16:24 41.90230 42.81770 30909 ft 391 kts 269°
2026-04-25 16:24 41.90145 42.78117 31089 ft 392 kts 266°
2026-04-25 16:24 41.90006 42.74432 31277 ft 393 kts 266°
2026-04-25 16:24 41.89864 42.70801 31462 ft 395 kts 266°
2026-04-25 16:25 41.89718 42.67112 31654 ft 396 kts 266°
2026-04-25 16:25 41.89621 42.64658 31783 ft 396 kts 266°
2026-04-25 16:25 41.89423 42.59742 31997 ft 399 kts 266°
2026-04-25 16:25 41.89271 42.56003 32166 ft 400 kts 266°
2026-04-25 16:26 41.89120 42.52322 32357 ft 401 kts 266°
2026-04-25 16:26 41.88966 42.48586 32517 ft 402 kts 266°
2026-04-25 16:26 41.88812 42.44859 32671 ft 403 kts 266°
2026-04-25 16:26 41.88653 42.41066 32834 ft 404 kts 266°
2026-04-25 16:27 41.88495 42.37330 32982 ft 405 kts 266°
2026-04-25 16:27 41.88333 42.33544 33146 ft 406 kts 265°
2026-04-25 16:27 41.88170 42.29742 33355 ft 406 kts 265°
2026-04-25 16:27 41.88009 42.26017 33577 ft 405 kts 265°
2026-04-25 16:28 41.87844 42.22244 33795 ft 405 kts 265°
2026-04-25 16:28 41.87678 42.18477 34004 ft 404 kts 265°
2026-04-25 16:28 41.87513 42.14719 34190 ft 404 kts 265°
2026-04-25 16:28 41.87346 42.10965 34379 ft 404 kts 265°
2026-04-25 16:29 41.87179 42.07239 34548 ft 404 kts 265°
2026-04-25 16:29 41.87009 42.03479 34663 ft 405 kts 265°
2026-04-25 16:29 41.86837 41.99722 34755 ft 407 kts 265°
2026-04-25 16:29 41.86663 41.95916 34863 ft 408 kts 265°
2026-04-25 16:30 41.86487 41.92126 34980 ft 408 kts 265°
2026-04-25 16:30 41.86311 41.88337 35116 ft 408 kts 265°
2026-04-25 16:30 41.86131 41.84525 35262 ft 408 kts 265°
2026-04-25 16:30 41.85952 41.80739 35393 ft 408 kts 265°
2026-04-25 16:31 41.85770 41.76920 35508 ft 408 kts 265°
2026-04-25 16:31 41.85589 41.73138 35609 ft 409 kts 265°
2026-04-25 16:31 41.85406 41.69340 35717 ft 409 kts 265°
2026-04-25 16:31 41.85220 41.65517 35818 ft 409 kts 265°
2026-04-25 16:32 41.85036 41.61723 35927 ft 409 kts 265°
2026-04-25 16:32 41.84661 41.54136 36110 ft 410 kts 265°
2026-04-25 16:33 41.84281 41.46537 36139 ft 411 kts 265°
2026-04-25 16:33 41.83893 41.38902 36142 ft 412 kts 265°
2026-04-25 16:34 41.83503 41.31296 36145 ft 412 kts 265°
2026-04-25 16:34 41.83105 41.23656 36137 ft 412 kts 265°
2026-04-25 16:35 41.82703 41.16017 36140 ft 412 kts 265°
2026-04-25 16:35 41.82294 41.08362 36138 ft 411 kts 265°
2026-04-25 16:36 41.81885 41.00793 36126 ft 411 kts 265°
2026-04-25 16:36 41.81468 40.93169 36122 ft 411 kts 265°
2026-04-25 16:37 41.81044 40.85527 36127 ft 412 kts 265°
2026-04-25 16:37 41.80616 40.77927 36124 ft 412 kts 265°
2026-04-25 16:38 41.80185 40.70282 36121 ft 412 kts 265°
2026-04-25 16:38 41.80081 40.62615 36122 ft 414 kts 271°
2026-04-25 16:39 41.80392 40.54966 36121 ft 414 kts 272°
2026-04-25 16:39 41.80727 40.47277 36124 ft 414 kts 272°
2026-04-25 16:40 41.81057 40.39581 36122 ft 414 kts 272°
2026-04-25 16:40 41.81382 40.31888 36120 ft 414 kts 272°
2026-04-25 16:41 41.81701 40.24188 36119 ft 415 kts 272°
2026-04-25 16:41 41.82169 40.12678 36120 ft 415 kts 272°
2026-04-25 16:42 41.82477 40.04989 36118 ft 415 kts 272°
2026-04-25 16:42 41.82779 39.97254 36114 ft 415 kts 272°
2026-04-25 16:43 41.83075 39.89535 36116 ft 415 kts 272°
2026-04-25 16:43 41.83363 39.81872 36115 ft 415 kts 272°
2026-04-25 16:44 41.83648 39.74166 36116 ft 415 kts 272°
2026-04-25 16:44 41.83928 39.66429 36117 ft 415 kts 272°
2026-04-25 16:45 41.84200 39.58759 36110 ft 416 kts 272°
2026-04-25 16:45 41.84472 39.50996 36113 ft 416 kts 272°
2026-04-25 16:46 41.84739 39.43275 36118 ft 416 kts 272°
2026-04-25 16:46 41.84958 39.36832 36114 ft 416 kts 272°
2026-04-25 16:47 41.85257 39.27839 36110 ft 416 kts 271°
2026-04-25 16:47 41.85507 39.20117 36110 ft 416 kts 271°
2026-04-25 16:48 41.85753 39.12385 36110 ft 416 kts 271°
2026-04-25 16:48 41.85993 39.04664 36109 ft 417 kts 271°
2026-04-25 16:49 41.86228 38.96915 36109 ft 417 kts 271°
2026-04-25 16:49 41.86458 38.89148 36110 ft 418 kts 271°
2026-04-25 16:50 41.86684 38.81374 36104 ft 418 kts 271°
2026-04-25 16:50 41.86905 38.73589 36107 ft 418 kts 271°
2026-04-25 16:51 41.87121 38.65797 36121 ft 418 kts 271°
2026-04-25 16:51 41.87295 38.59341 36111 ft 417 kts 271°
2026-04-25 16:52 41.87535 38.50285 36109 ft 417 kts 271°
2026-04-25 16:52 41.87735 38.42502 36107 ft 418 kts 271°
2026-04-25 16:53 41.88021 38.30898 36108 ft 418 kts 271°
2026-04-25 16:54 41.88208 38.23081 36107 ft 418 kts 271°
2026-04-25 16:54 41.88390 38.15310 36095 ft 419 kts 271°
2026-04-25 16:55 41.88565 38.07548 36090 ft 419 kts 271°
2026-04-25 16:55 41.88735 37.99799 36091 ft 419 kts 271°
2026-04-25 16:56 41.88901 37.92001 36092 ft 419 kts 271°
2026-04-25 16:56 41.89062 37.84198 36093 ft 420 kts 271°
2026-04-25 16:57 41.89218 37.76348 36091 ft 420 kts 271°
2026-04-25 16:57 41.89368 37.68535 36089 ft 419 kts 271°
2026-04-25 16:58 41.89511 37.60732 36089 ft 419 kts 271°
2026-04-25 16:58 41.89651 37.52933 36087 ft 420 kts 271°
2026-04-25 16:59 41.89784 37.45123 36084 ft 421 kts 271°
2026-04-25 16:59 41.89912 37.37327 36085 ft 421 kts 271°
2026-04-25 17:00 41.90036 37.29468 36082 ft 421 kts 270°
2026-04-25 17:00 41.90154 37.21626 36081 ft 421 kts 270°
2026-04-25 17:01 41.90265 37.13822 36079 ft 421 kts 270°
2026-04-25 17:01 41.90385 37.05983 36076 ft 421 kts 271°
2026-04-25 17:02 41.90831 36.98175 36077 ft 422 kts 275°
2026-04-25 17:02 41.91366 36.90362 36078 ft 422 kts 275°
2026-04-25 17:03 41.91896 36.82545 36076 ft 422 kts 275°
2026-04-25 17:03 41.92423 36.74678 36077 ft 422 kts 275°
2026-04-25 17:04 41.92942 36.66855 36079 ft 422 kts 275°
2026-04-25 17:04 41.93457 36.58988 36079 ft 422 kts 275°
2026-04-25 17:05 41.93964 36.51170 36080 ft 423 kts 275°
2026-04-25 17:05 41.94717 36.39397 36076 ft 423 kts 275°
2026-04-25 17:06 41.95210 36.31572 36064 ft 423 kts 274°
2026-04-25 17:06 41.95702 36.23696 36065 ft 423 kts 274°
2026-04-25 17:07 41.96189 36.15812 36070 ft 424 kts 274°
2026-04-25 17:07 41.96666 36.07997 36074 ft 424 kts 274°
2026-04-25 17:08 41.97142 36.00110 36076 ft 424 kts 274°
2026-04-25 17:08 41.97611 35.92215 36074 ft 424 kts 274°
2026-04-25 17:09 41.98074 35.84373 36071 ft 424 kts 274°
2026-04-25 17:09 41.98532 35.76506 36070 ft 424 kts 274°
2026-04-25 17:10 41.98988 35.68571 36067 ft 424 kts 274°
2026-04-25 17:10 41.99438 35.60668 36067 ft 425 kts 274°
2026-04-25 17:11 41.99881 35.52799 36066 ft 425 kts 274°
2026-04-25 17:11 42.00317 35.44910 36066 ft 425 kts 274°
2026-04-25 17:12 42.00748 35.37039 36065 ft 425 kts 274°
2026-04-25 17:12 42.01176 35.29103 36062 ft 424 kts 274°
2026-04-25 17:13 42.01528 35.22502 36060 ft 424 kts 274°
2026-04-25 17:13 42.02011 35.13316 36058 ft 424 kts 274°
2026-04-25 17:14 42.02152 35.05391 36056 ft 425 kts 268°
2026-04-25 17:14 42.01801 34.97488 36054 ft 426 kts 266°
2026-04-25 17:15 42.01393 34.89556 36053 ft 426 kts 266°
2026-04-25 17:15 42.00993 34.81593 36053 ft 426 kts 266°
2026-04-25 17:16 42.00616 34.73663 36050 ft 426 kts 266°
2026-04-25 17:16 42.00231 34.65748 36051 ft 426 kts 266°
2026-04-25 17:17 41.99838 34.57796 36048 ft 426 kts 266°
2026-04-25 17:17 41.99439 34.49875 36045 ft 426 kts 266°
2026-04-25 17:18 41.99032 34.41893 36044 ft 427 kts 266°
2026-04-25 17:18 41.98620 34.33935 36040 ft 428 kts 266°
2026-04-25 17:19 41.98204 34.25998 36039 ft 428 kts 266°
2026-04-25 17:19 41.97783 34.18060 36037 ft 428 kts 266°
2026-04-25 17:20 41.97355 34.10117 36034 ft 428 kts 266°
2026-04-25 17:20 41.96921 34.02165 36033 ft 428 kts 266°
2026-04-25 17:21 41.96481 33.94210 36032 ft 429 kts 266°
2026-04-25 17:21 41.96036 33.86250 36030 ft 430 kts 266°
2026-04-25 17:22 41.95658 33.79582 36029 ft 430 kts 266°
2026-04-25 17:22 41.95124 33.70276 36027 ft 430 kts 266°
2026-04-25 17:23 41.94659 33.62267 36028 ft 430 kts 266°
2026-04-25 17:23 41.94190 33.54301 36028 ft 431 kts 266°
2026-04-25 17:24 41.93714 33.46310 36029 ft 431 kts 266°
2026-04-25 17:24 41.93229 33.38279 36027 ft 432 kts 266°
2026-04-25 17:25 41.92738 33.30230 36029 ft 433 kts 265°
2026-04-25 17:25 41.92241 33.22197 36029 ft 433 kts 265°
2026-04-25 17:26 41.91739 33.14173 36022 ft 434 kts 265°
2026-04-25 17:26 41.91229 33.06117 36021 ft 434 kts 265°
2026-04-25 17:27 41.90712 32.98032 36022 ft 435 kts 265°
2026-04-25 17:27 41.90280 32.91331 36022 ft 435 kts 265°
2026-04-25 17:28 41.89665 32.81921 36029 ft 435 kts 265°
2026-04-25 17:28 41.89131 32.73856 36040 ft 436 kts 266°
2026-04-25 17:29 41.88588 32.65742 36036 ft 436 kts 266°
2026-04-25 17:29 41.88060 32.57701 36034 ft 436 kts 267°
2026-04-25 17:30 41.88026 32.49565 36036 ft 436 kts 274°
2026-04-25 17:30 41.88741 32.41497 36035 ft 436 kts 281°
2026-04-25 17:31 41.89740 32.33480 36030 ft 437 kts 277°
2026-04-25 17:31 41.90020 32.25356 36029 ft 438 kts 269°
2026-04-25 17:32 41.89405 32.17290 36030 ft 440 kts 261°
2026-04-25 17:32 41.87957 32.09290 36033 ft 441 kts 256°
2026-04-25 17:33 41.86327 32.01359 36031 ft 441 kts 256°
2026-04-25 17:33 41.84705 31.93467 36030 ft 442 kts 256°
2026-04-25 17:34 41.83079 31.85567 36030 ft 442 kts 256°
2026-04-25 17:34 41.81441 31.77636 36031 ft 442 kts 256°
2026-04-25 17:35 41.79882 31.70119 36031 ft 442 kts 256°
2026-04-25 17:35 41.78458 31.63329 36031 ft 442 kts 256°
2026-04-25 17:36 41.76797 31.55436 36032 ft 442 kts 256°
2026-04-25 17:36 41.75131 31.47543 36032 ft 442 kts 256°
2026-04-25 17:37 41.73454 31.39631 36029 ft 442 kts 256°
2026-04-25 17:37 41.71773 31.31731 36030 ft 443 kts 255°
2026-04-25 17:38 41.70369 31.25148 36031 ft 443 kts 255°
2026-04-25 17:38 41.68394 31.15936 36036 ft 443 kts 255°
2026-04-25 17:39 41.66795 31.07996 36032 ft 443 kts 257°
2026-04-25 17:39 41.65318 31.00031 35953 ft 442 kts 257°
2026-04-25 17:40 41.64572 30.96037 35430 ft 444 kts 257°
2026-04-25 17:40 41.63821 30.92054 34596 ft 450 kts 257°
2026-04-25 17:40 41.63051 30.87995 33612 ft 456 kts 257°
2026-04-25 17:40 41.62269 30.83892 32694 ft 459 kts 257°
2026-04-25 17:41 41.61487 30.79804 31973 ft 457 kts 257°
2026-04-25 17:41 41.60704 30.75718 31431 ft 451 kts 257°
2026-04-25 17:41 41.59937 30.71684 30858 ft 447 kts 258°
2026-04-25 17:41 41.59414 30.67636 30251 ft 442 kts 265°
2026-04-25 17:42 41.59258 30.63592 29630 ft 436 kts 272°
2026-04-25 17:42 41.59364 30.59571 28909 ft 431 kts 274°
2026-04-25 17:42 41.59523 30.55635 28154 ft 426 kts 275°
2026-04-25 17:42 41.59688 30.51703 27279 ft 421 kts 275°
2026-04-25 17:43 41.59844 30.47850 26416 ft 416 kts 275°
2026-04-25 17:43 41.59991 30.44019 25546 ft 411 kts 275°
2026-04-25 17:43 41.60128 30.40286 24714 ft 406 kts 275°
2026-04-25 17:43 41.60263 30.36535 24087 ft 396 kts 275°
2026-04-25 17:44 41.60392 30.32932 23611 ft 389 kts 274°
2026-04-25 17:44 41.60804 30.29437 23113 ft 383 kts 289°
2026-04-25 17:44 41.61984 30.26291 22698 ft 376 kts 306°
2026-04-25 17:44 41.63703 30.23688 22285 ft 370 kts 315°
2026-04-25 17:45 41.65497 30.21249 21859 ft 367 kts 315°
2026-04-25 17:45 41.66679 30.19647 21580 ft 365 kts 315°
2026-04-25 17:45 41.68993 30.16402 21077 ft 360 kts 309°
2026-04-25 17:45 41.70106 30.13459 20801 ft 361 kts 284°
2026-04-25 17:46 41.70213 30.10103 20552 ft 363 kts 263°
2026-04-25 17:46 41.69463 30.06930 20306 ft 364 kts 244°
2026-04-25 17:46 41.67965 30.04206 20085 ft 365 kts 227°
2026-04-25 17:46 41.66158 30.01802 20049 ft 365 kts 226°
2026-04-25 17:47 41.64374 29.99438 20044 ft 366 kts 226°
2026-04-25 17:47 41.62561 29.97016 20037 ft 366 kts 226°
2026-04-25 17:47 41.60782 29.94620 20043 ft 366 kts 227°
2026-04-25 17:47 41.58994 29.92201 20046 ft 366 kts 227°
2026-04-25 17:48 41.55416 29.87340 20037 ft 366 kts 226°
2026-04-25 17:48 41.53645 29.84932 20037 ft 366 kts 226°
2026-04-25 17:48 41.51870 29.82519 20032 ft 366 kts 226°
2026-04-25 17:49 41.50068 29.80072 20035 ft 367 kts 226°
2026-04-25 17:49 41.48285 29.77653 20028 ft 367 kts 227°
2026-04-25 17:49 41.46501 29.75233 20031 ft 367 kts 227°
2026-04-25 17:49 41.44696 29.72786 20039 ft 368 kts 227°
2026-04-25 17:50 41.42911 29.70368 20029 ft 368 kts 227°
2026-04-25 17:50 41.41133 29.67962 20009 ft 367 kts 227°
2026-04-25 17:50 41.39338 29.65535 19503 ft 369 kts 227°
2026-04-25 17:50 41.37533 29.63096 18548 ft 373 kts 227°
2026-04-25 17:51 41.35733 29.60665 17690 ft 371 kts 227°
2026-04-25 17:51 41.33931 29.58233 16905 ft 367 kts 226°
2026-04-25 17:51 41.32177 29.55870 16154 ft 362 kts 226°
2026-04-25 17:51 41.30395 29.53469 15324 ft 366 kts 226°
2026-04-25 17:52 41.28600 29.51051 14528 ft 370 kts 226°
2026-04-25 17:52 41.27405 29.49446 14145 ft 369 kts 226°
2026-04-25 17:52 41.25007 29.46224 13457 ft 364 kts 226°
2026-04-25 17:52 41.23246 29.43859 12954 ft 361 kts 226°
2026-04-25 17:53 41.21497 29.41513 12488 ft 356 kts 226°
2026-04-25 17:53 41.19767 29.39195 12072 ft 351 kts 226°
2026-04-25 17:53 41.18076 29.36932 11662 ft 345 kts 226°
2026-04-25 17:53 41.16389 29.34675 11228 ft 340 kts 226°
2026-04-25 17:54 41.14748 29.32472 10837 ft 334 kts 226°
2026-04-25 17:54 41.13122 29.30287 10451 ft 325 kts 225°
2026-04-25 17:54 41.11565 29.28200 10056 ft 310 kts 225°
2026-04-25 17:54 41.10099 29.26236 9653 ft 294 kts 225°
2026-04-25 17:55 41.08698 29.24362 9288 ft 281 kts 225°
2026-04-25 17:55 41.07338 29.22543 8882 ft 278 kts 225°
2026-04-25 17:55 41.05983 29.20731 8496 ft 278 kts 225°
2026-04-25 17:55 41.04619 29.18909 8121 ft 275 kts 226°
2026-04-25 17:56 41.03278 29.17115 7751 ft 274 kts 226°
2026-04-25 17:56 41.01938 29.15326 7501 ft 271 kts 226°
2026-04-25 17:56 41.00613 29.13557 7336 ft 271 kts 226°
2026-04-25 17:56 40.99280 29.11779 7173 ft 271 kts 225°
2026-04-25 17:57 40.97945 29.10000 6981 ft 270 kts 226°
2026-04-25 17:57 40.96625 29.08242 6725 ft 268 kts 225°
2026-04-25 17:57 40.95324 29.06509 6436 ft 266 kts 226°
2026-04-25 17:57 40.94543 29.05262 6323 ft 264 kts 240°
2026-04-25 17:58 40.94041 29.02117 6158 ft 264 kts 267°
2026-04-25 17:58 40.93986 28.99716 5989 ft 259 kts 267°
2026-04-25 17:58 40.93918 28.97365 5831 ft 249 kts 266°
2026-04-25 17:58 40.93824 28.95141 5701 ft 239 kts 265°
2026-04-25 17:59 40.93709 28.92994 5569 ft 229 kts 265°
2026-04-25 17:59 40.93586 28.90913 5437 ft 222 kts 265°
2026-04-25 17:59 40.93459 28.88884 5312 ft 223 kts 265°
2026-04-25 17:59 40.93326 28.86841 5187 ft 223 kts 265°
2026-04-25 18:00 40.93193 28.84812 5064 ft 224 kts 265°
2026-04-25 18:00 40.93057 28.82737 4996 ft 223 kts 265°
2026-04-25 18:00 40.92923 28.80691 4996 ft 224 kts 265°
2026-04-25 18:00 40.92923 28.78644 4977 ft 224 kts 282°
2026-04-25 18:01 40.93562 28.76804 4979 ft 223 kts 309°
2026-04-25 18:01 40.94765 28.75510 4999 ft 224 kts 328°
2026-04-25 18:01 40.96127 28.74540 5074 ft 218 kts 335°
2026-04-25 18:01 40.97527 28.73820 5048 ft 216 kts 341°
2026-04-25 18:02 40.98993 28.73413 5013 ft 213 kts 352°
2026-04-25 18:02 41.00444 28.73275 4991 ft 206 kts 357°
2026-04-25 18:02 41.01893 28.73235 4941 ft 205 kts 358°
2026-04-25 18:02 41.03294 28.73215 4717 ft 197 kts 359°
2026-04-25 18:03 41.04656 28.73197 4450 ft 191 kts 359°
2026-04-25 18:03 41.05965 28.73175 4195 ft 185 kts 359°
2026-04-25 18:03 41.07247 28.73151 3957 ft 184 kts 359°
2026-04-25 18:03 41.08529 28.73125 3722 ft 184 kts 360°
2026-04-25 18:04 41.09817 28.73099 3483 ft 182 kts
2026-04-25 18:04 41.11068 28.73072 3244 ft 178 kts
2026-04-25 18:04 41.12296 28.73047 3016 ft 177 kts
2026-04-25 18:04 41.13542 28.73022 2798 ft 175 kts
2026-04-25 18:05 41.14742 28.72997 2579 ft 168 kts
2026-04-25 18:05 41.15888 28.72974 2345 ft 163 kts
2026-04-25 18:05 41.16993 28.72951 2103 ft 152 kts
2026-04-25 18:05 41.18034 28.72930 1906 ft 149 kts
2026-04-25 18:06 41.19074 28.72910 1717 ft 148 kts
2026-04-25 18:06 41.20106 28.72891 1536 ft 148 kts
2026-04-25 18:06 41.21140 28.72874 1327 ft 148 kts
2026-04-25 18:06 41.22167 28.72867 1099 ft 147 kts
2026-04-25 18:07 41.23189 28.72839 916 ft 147 kts
2026-04-25 18:07 41.24214 28.72809 745 ft 146 kts
2026-04-25 18:07 41.25236 28.72794 557 ft 147 kts
2026-04-25 18:07 41.26257 28.72774 379 ft 147 kts
2026-04-25 18:08 41.27246 28.72758 334 ft 133 kts
2026-04-25 18:08 41.28017 28.72744 333 ft 85 kts 359°
2026-04-25 18:08 41.28441 28.72739 333 ft 37 kts
2026-04-25 18:08 41.28635 28.72811 333 ft 16 kts 25°
2026-04-25 18:09 41.28721 28.72903 333 ft 15 kts 70°
2026-04-25 18:09 41.28659 28.72957 333 ft 10 kts 179°
2026-04-25 18:09 41.28581 28.72956 333 ft 11 kts 179°
2026-04-25 18:09 41.28524 28.72957 333 ft 12 kts 179°
2026-04-25 18:10 41.28377 28.72960 333 ft 23 kts 179°
2026-04-25 18:10 41.28195 28.72964 333 ft 25 kts 179°
2026-04-25 18:10 41.28017 28.72967 333 ft 24 kts 179°
2026-04-25 18:10 41.27852 28.72970 333 ft 22 kts 179°
2026-04-25 18:11 41.27699 28.72973 333 ft 21 kts 179°
2026-04-25 18:11 41.27555 28.72975 333 ft 20 kts 179°
2026-04-25 18:11 41.27419 28.72979 333 ft 20 kts 178°
2026-04-25 18:11 41.27253 28.72982 333 ft 26 kts 179°
2026-04-25 18:12 41.27074 28.72986 333 ft 24 kts 181°
2026-04-25 18:12 41.26926 28.72989 333 ft 13 kts 178°
2026-04-25 18:12 41.26857 28.73030 333 ft 11 kts 105°
2026-04-25 18:12 41.26856 28.73156 333 ft 16 kts 89°
2026-04-25 18:13 41.26856 28.73226 333 ft 2 kts 89°
2026-04-25 18:13 41.26856 28.73228 333 ft 0 kts 89°
2026-04-25 18:13 41.26856 28.73287 333 ft 12 kts 97°
2026-04-25 18:14 41.26698 28.73334 333 ft 12 kts 179°
2026-04-25 18:14 41.26613 28.73345 333 ft 10 kts 149°
2026-04-25 18:14 41.26607 28.73413 333 ft 7 kts 75°
2026-04-25 18:14 41.26619 28.73467 333 ft 3 kts 72°
2026-04-25 18:15 41.26622 28.73475 333 ft 0 kts 71°
2026-04-25 18:15 41.26622 28.73477 333 ft 0 kts 72°